Lid_Strength_Index
6 5 5 4 4 3 2 1 1 -0 0 1 1 1 1 0 0 -0 -1 -1 -1 -1 -1 -0 -0 -0 0 1 1 1 1 1 0 1 1 1 0 -0 -0 -1 -1 -1 -1
6 6 5 4 3 3 2 2 2 1 0 0 0 1 1 0 0 -0 -1 -1 -1 -1 -1 -0 -0 -0 0 0 0 0 1 1 0 2 2 4 2 1 0 -0 -0 -1 -1
6 7 5 4 3 3 3 2 1 1 -0 -0 0 1 0 1 1 1 0 -0 -1 -1 -1 -1 -0 -0 0 1 0 0 1 2 1 0 2 4 5 2 1 1 0 -0 -0
5 4 4 5 4 3 3 2 1 1 1 -0 -1 -0 1 2 1 1 0 -0 -0 -0 -1 -0 -0 -0 -0 -0 0 0 0 1 2 1 1 1 1 4 4 1 1 0 0
3 4 4 3 3 3 3 2 1 1 0 -1 -0 1 1 1 0 0 0 0 -0 -0 -0 -0 -0 -0 0 -0 -0 0 0 1 1 2 2 2 2 1 3 5 3 1 0
3 3 3 2 2 1 1 1 1 0 -0 -0 -0 0 1 1 1 1 1 1 1 0 -0 -0 -0 -0 -0 -0 0 0 0 1 1 1 1 2 3 3 3 4 3 2 1
3 3 3 2 2 2 1 1 1 1 0 0 -0 0 0 0 1 1 1 1 1 1 0 0 0 0 0 -0 -0 0 0 0 1 1 1 1 1 1 1 2 3 3 2
3 3 2 2 2 1 1 1 1 1 0 0 0 0 -0 1 1 0 1 1 1 0 -0 0 0 0 -0 -0 -0 0 0 0 1 1 1 1 1 1 1 2 2 3 3
3 3 2 2 2 1 1 1 1 1 1 1 0 0 0 0 1 0 0 0 0 0 -0 -0 0 0 -0 0 0 1 1 1 0 1 0 1 1 0 0 1 1 2 4
3 3 2 2 1 1 1 0 1 1 1 1 1 1 0 0 0 1 1 1 0 0 0 1 0 0 0 0 0 0 0 1 1 1 1 1 0 0 0 0 1 1 2
3 3 2 2 1 1 1 1 1 1 1 0 0 0 1 1 0 1 1 1 0 0 0 0 1 1 1 0 1 0 1 1 1 0 1 1 0 1 1 0 0 1 1
3 3 2 2 2 2 1 1 1 1 1 0 0 1 1 1 1 1 1 0 0 0 0 0 1 1 1 0 1 1 1 1 1 1 1 1 1 1 0 1 0 1 0
3 3 2 2 2 2 1 1 1 2 1 1 1 1 1 1 1 1 1 0 0 0 0 0 1 1 1 1 0 1 1 1 1 1 1 1 1 1 1 1 1 1 1
3 3 3 2 2 2 1 1 1 1 1 1 1 1 1 1 1 1 1 1 0 0 0 0 1 0 1 1 0 1 1 1 1 0 1 0 1 1 1 1 1 0 1
4 3 3 3 2 2 2 1 1 1 1 1 1 1 1 1 1 1 1 1 1 1 1 1 1 0 1 1 1 1 1 1 1 1 1 0 1 2 1 1 0 1 1
4 3 3 3 2 2 2 1 1 1 1 1 1 1 1 2 2 1 1 1 1 1 1 1 1 1 1 9 8 2 1 1 1 1 1 0 2 2 4 4 5 2 1
4 3 3 3 2 2 2 2 2 1 2 2 1 1 1 2 3 1 1 2 2 1 1 1 1 1 1 10 10 7 1 1 1 1 1 1 0 1 0 5 6 5 5
4 3 3 2 2 1 1 2 3 4 4 3 2 1 2 3 3 2 2 2 1 1 2 1 1 1 1 11 10 8 0 1 1 0 0 0 0 0 0 0 1 0 0
3 3 2 2 1 2 2 4 5 6 5 4 2 2 2 3 4 2 2 2 2 2 2 1 1 2 2 12 10 4 1 1 1 0 0 0 0 7 8 1 1 1 1
3 3 2 2 2 2 3 5 5 5 4 3 3 2 3 4 4 2 2 2 2 2 2 2 1 4 1 12 10 4 1 1 1 0 0 8 3 11 10 1 1 2 2
2 2 2 3 3 3 4 5 5 5 5 4 2 3 4 3 2 2 2 2 2 2 2 2 2 1 2 8 11 10 1 1 1 1 1 1 10 11 10 9 1 2 1
3 3 4 4 4 4 5 5 5 4 4 3 4 3 3 2 2 2 2 2 2 3 3 3 2 2 3 8 10 11 7 4 1 1 1 1 11 11 10 6 10 10 5
4 4 5 5 5 5 5 5 4 4 3 4 3 3 2 2 2 3 3 3 3 3 3 3 4 4 2 2 11 11 10 8 1 1 4 11 12 12 10 11 11 9 1
6 6 6 6 6 5 5 4 4 4 4 3 3 2 3 3 2 3 3 3 3 3 3 3 3 3 2 2 1 1 1 7 3 6 3 5 6 8 5 6 6 1 1
7 7 7 7 6 5 4 3 3 3 2 3 3 3 3 3 3 4 3 3 2 3 3 3 2 2 3 2 3 2 1 1 2 2 2 2 3 3 3 3 1 1 1
7 7 7 7 6 5 4 3 2 1 2 3 3 3 4 5 4 4 6 12 9 10 10 8 3 1 7 10 10 11 11 11 9 2 2 3 3 4 3 2 2 1 2